QPF
0.00 0.00 0.00 0.00 0.00 0.00 0.00 0.00 0.00 0.00 0.00 0.00 0.00 0.00 0.00 0.00 0.00 0.00 0.00 0.00 0.00 0.00 0.00 0.00 0.00 0.00 0.00 0.00 0.00 0.00 0.00 0.00 0.00 0.00 0.00 0.00 0.00 0.00 0.00 0.00 0.00 0.00 0.00 0.00 0.00 0.00 0.00
0.00 0.00 0.00 0.00 0.00 0.00 0.00 0.00 0.00 0.00 0.00 0.00 0.00 0.00 0.00 0.00 0.00 0.00 0.00 0.00 0.00 0.00 0.00 0.00 0.00 0.00 0.00 0.00 0.00 0.00 0.00 0.00 0.00 0.00 0.00 0.00 0.00 0.00 0.00 0.00 0.00 0.00 0.00 0.00 0.00 0.00 0.00
0.00 0.00 0.00 0.00 0.00 0.00 0.00 0.00 0.00 0.00 0.00 0.00 0.00 0.00 0.00 0.00 0.00 0.00 0.00 0.00 0.00 0.00 0.00 0.00 0.00 0.00 0.00 0.00 0.00 0.00 0.00 0.00 0.00 0.00 0.00 0.00 0.00 0.00 0.00 0.00 0.00 0.00 0.00 0.00 0.00 0.00 0.00
0.00 0.00 0.00 0.00 0.00 0.00 0.00 0.00 0.00 0.00 0.00 0.00 0.00 0.00 0.00 0.00 0.00 0.00 0.00 0.00 0.00 0.00 0.00 0.00 0.00 0.00 0.00 0.00 0.00 0.00 0.00 0.00 0.00 0.00 0.00 0.00 0.00 0.00 0.00 0.00 0.00 0.00 0.00 0.00 0.00 0.00 0.00
0.00 0.00 0.00 0.00 0.00 0.00 0.00 0.00 0.00 0.00 0.00 0.00 0.00 0.00 0.00 0.00 0.00 0.00 0.00 0.00 0.00 0.00 0.00 0.00 0.00 0.00 0.00 0.00 0.00 0.00 0.00 0.00 0.00 0.00 0.00 0.00 0.00 0.00 0.00 0.00 0.00 0.00 0.00 0.00 0.00 0.00 0.01
0.00 0.00 0.00 0.00 0.00 0.00 0.00 0.00 0.00 0.00 0.00 0.00 0.00 0.00 0.00 0.00 0.00 0.00 0.00 0.00 0.00 0.00 0.00 0.00 0.00 0.00 0.00 0.00 0.00 0.00 0.00 0.00 0.00 0.00 0.00 0.00 0.00 0.00 0.00 0.00 0.00 0.00 0.00 0.00 0.00 0.00 0.00
0.00 0.00 0.01 0.01 0.00 0.00 0.00 0.00 0.00 0.00 0.00 0.00 0.00 0.00 0.00 0.00 0.00 0.00 0.00 0.00 0.00 0.00 0.00 0.00 0.00 0.00 0.00 0.00 0.00 0.00 0.00 0.00 0.00 0.00 0.00 0.00 0.00 0.00 0.00 0.00 0.00 0.00 0.00 0.00 0.00 0.00 0.00
0.00 0.00 0.00 0.01 0.01 0.00 0.00 0.00 0.00 0.00 0.00 0.00 0.00 0.00 0.00 0.00 0.00 0.00 0.00 0.00 0.00 0.00 0.00 0.00 0.00 0.00 0.00 0.00 0.00 0.00 0.00 0.00 0.00 0.00 0.00 0.00 0.00 0.00 0.00 0.00 0.00 0.00 0.00 0.00 0.00 0.00 0.00
0.00 0.00 0.00 0.00 0.01 0.01 0.00 0.00 0.00 0.00 0.00 0.00 0.00 0.00 0.00 0.00 0.00 0.00 0.00 0.00 0.00 0.00 0.00 0.00 0.00 0.00 0.00 0.00 0.00 0.00 0.00 0.00 0.00 0.00 0.00 0.00 0.00 0.00 0.00 0.00 0.00 0.00 0.00 0.00 0.00 0.00 0.00
0.00 0.01 0.01 0.00 0.01 0.01 0.01 0.00 0.00 0.00 0.00 0.00 0.00 0.00 0.00 0.00 0.00 0.00 0.00 0.00 0.00 0.00 0.00 0.00 0.00 0.00 0.00 0.00 0.00 0.00 0.00 0.00 0.00 0.00 0.00 0.00 0.00 0.00 0.00 0.00 0.00 0.00 0.00 0.00 0.00 0.00 0.00
0.00 0.00 0.00 0.00 0.00 0.00 0.00 0.00 0.00 0.00 0.00 0.00 0.00 0.00 0.00 0.00 0.00 0.00 0.00 0.00 0.00 0.00 0.00 0.00 0.00 0.00 0.00 0.00 0.00 0.00 0.00 0.00 0.00 0.00 0.00 0.00 0.00 0.00 0.00 0.00 0.00 0.00 0.00 0.00 0.00 0.00 0.00
0.00 0.00 0.00 0.00 0.00 0.00 0.00 0.01 0.01 0.00 0.00 0.00 0.00 0.00 0.00 0.01 0.01 0.00 0.00 0.01 0.01 0.00 0.00 0.00 0.00 0.00 0.00 0.00 0.00 0.00 0.00 0.00 0.00 0.00 0.00 0.00 0.00 0.00 0.00 0.00 0.00 0.00 0.00 0.00 0.00 0.00 0.00
0.00 0.00 0.00 0.00 0.00 0.00 0.00 0.01 0.01 0.00 0.00 0.00 0.00 0.00 0.00 0.01 0.01 0.00 0.00 0.02 0.02 0.00 0.00 0.00 0.00 0.00 0.00 0.00 0.00 0.00 0.00 0.00 0.00 0.00 0.00 0.00 0.00 0.00 0.00 0.00 0.00 0.00 0.00 0.00 0.00 0.00 0.00
0.00 0.00 0.00 0.00 0.00 0.00 0.00 0.00 0.01 0.00 0.00 0.00 0.01 0.00 0.00 0.01 0.00 0.02 0.01 0.03 0.00 0.00 0.00 0.00 0.00 0.00 0.00 0.00 0.00 0.00 0.00 0.00 0.00 0.00 0.00 0.00 0.00 0.00 0.00 0.00 0.00 0.00 0.00 0.00 0.00 0.01 0.02
0.00 0.00 0.00 0.00 0.00 0.00 0.00 0.00 0.00 0.00 0.00 0.01 0.02 0.02 0.01 0.00 0.01 0.02 0.01 0.02 0.00 0.00 0.00 0.00 0.00 0.00 0.00 0.00 0.00 0.00 0.00 0.00 0.00 0.00 0.00 0.00 0.00 0.00 0.00 0.00 0.00 0.00 0.00 0.00 0.00 0.00 0.01
0.01 0.01 0.00 0.00 0.00 0.00 0.00 0.00 0.01 0.00 0.00 0.02 0.04 0.04 0.02 0.01 0.02 0.08 0.02 0.01 0.00 0.00 0.00 0.00 0.00 0.00 0.00 0.00 0.00 0.00 0.00 0.00 0.00 0.00 0.00 0.00 0.00 0.00 0.00 0.00 0.00 0.00 0.00 0.00 0.00 0.01 0.02
0.01 0.01 0.01 0.01 0.01 0.01 0.01 0.01 0.01 0.02 0.01 0.03 0.03 0.03 0.01 0.03 0.07 0.07 0.01 0.00 0.00 0.00 0.00 0.00 0.00 0.00 0.00 0.00 0.00 0.00 0.00 0.00 0.00 0.00 0.00 0.00 0.00 0.00 0.00 0.00 0.00 0.00 0.00 0.00 0.00 0.00 0.01
0.01 0.01 0.01 0.01 0.01 0.01 0.02 0.03 0.03 0.03 0.02 0.02 0.01 0.01 0.01 0.03 0.04 0.02 0.00 0.00 0.00 0.00 0.00 0.00 0.00 0.00 0.00 0.00 0.00 0.00 0.00 0.00 0.00 0.00 0.00 0.00 0.00 0.00 0.00 0.00 0.00 0.00 0.00 0.00 0.00 0.00 0.00
0.01 0.01 0.01 0.01 0.01 0.01 0.01 0.03 0.04 0.02 0.01 0.01 0.00 0.01 0.06 0.03 0.01 0.00 0.00 0.00 0.00 0.00 0.00 0.00 0.00 0.00 0.00 0.00 0.00 0.00 0.00 0.00 0.00 0.00 0.00 0.00 0.00 0.00 0.00 0.00 0.00 0.00 0.00 0.00 0.00 0.00 0.00
0.01 0.01 0.01 0.01 0.01 0.01 0.02 0.02 0.03 0.02 0.01 0.00 0.00 0.00 0.04 0.05 0.01 0.00 0.00 0.00 0.00 0.00 0.00 0.00 0.00 0.00 0.00 0.00 0.00 0.00 0.00 0.00 0.00 0.00 0.00 0.00 0.00 0.00 0.00 0.00 0.00 0.00 0.00 0.00 0.00 0.00 0.00
0.01 0.01 0.01 0.01 0.01 0.00 0.01 0.01 0.02 0.03 0.01 0.00 0.00 0.00 0.00 0.01 0.01 0.00 0.00 0.00 0.00 0.00 0.00 0.00 0.00 0.00 0.00 0.00 0.01 0.01 0.00 0.00 0.00 0.00 0.00 0.00 0.00 0.00 0.00 0.00 0.00 0.00 0.00 0.00 0.00 0.00 0.00
0.01 0.01 0.01 0.01 0.01 0.01 0.00 0.01 0.01 0.04 0.02 0.00 0.00 0.00 0.01 0.00 0.00 0.01 0.01 0.00 0.00 0.00 0.00 0.00 0.00 0.00 0.00 0.00 0.01 0.02 0.02 0.01 0.00 0.00 0.00 0.00 0.00 0.00 0.00 0.00 0.00 0.00 0.00 0.00 0.00 0.00 0.00
0.00 0.01 0.01 0.01 0.01 0.02 0.01 0.01 0.00 0.02 0.03 0.01 0.00 0.00 0.01 0.01 0.02 0.02 0.00 0.00 0.00 0.00 0.00 0.00 0.00 0.00 0.00 0.00 0.01 0.02 0.01 0.00 0.00 0.00 0.00 0.00 0.00 0.00 0.00 0.00 0.00 0.00 0.00 0.00 0.00 0.00 0.00
0.00 0.01 0.01 0.01 0.01 0.02 0.02 0.02 0.01 0.01 0.02 0.01 0.00 0.00 0.02 0.02 0.03 0.01 0.00 0.00 0.00 0.00 0.00 0.00 0.00 0.00 0.00 0.00 0.00 0.00 0.01 0.00 0.00 0.00 0.00 0.00 0.00 0.00 0.00 0.00 0.00 0.00 0.00 0.00 0.00 0.00 0.00
0.01 0.01 0.01 0.02 0.02 0.02 0.02 0.02 0.02 0.01 0.02 0.01 0.00 0.00 0.01 0.02 0.01 0.00 0.00 0.00 0.00 0.00 0.00 0.00 0.00 0.00 0.00 0.00 0.01 0.01 0.00 0.00 0.00 0.01 0.00 0.00 0.02 0.02 0.01 0.01 0.00 0.00 0.00 0.00 0.00 0.00 0.00
0.00 0.01 0.01 0.02 0.03 0.03 0.02 0.03 0.02 0.01 0.02 0.02 0.01 0.01 0.02 0.02 0.01 0.00 0.00 0.00 0.01 0.01 0.00 0.00 0.00 0.00 0.00 0.00 0.02 0.00 0.00 0.00 0.00 0.00 0.00 0.00 0.02 0.06 0.01 0.00 0.00 0.00 0.00 0.00 0.00 0.00 0.00
0.01 0.01 0.03 0.03 0.03 0.03 0.03 0.03 0.03 0.02 0.02 0.02 0.01 0.01 0.02 0.03 0.02 0.01 0.01 0.01 0.00 0.00 0.01 0.00 0.01 0.04 0.02 0.03 0.02 0.00 0.00 0.00 0.00 0.00 0.00 0.00 0.01 0.03 0.02 0.02 0.00 0.00 0.00 0.00 0.00 0.00 0.00
0.01 0.00 0.01 0.03 0.04 0.03 0.03 0.03 0.03 0.02 0.02 0.01 0.01 0.02 0.02 0.02 0.02 0.00 0.00 0.01 0.00 0.00 0.01 0.01 0.04 0.04 0.07 0.04 0.02 0.00 0.00 0.00 0.00 0.00 0.00 0.01 0.02 0.02 0.04 0.02 0.00 0.00 0.00 0.00 0.00 0.00 0.00
0.00 0.00 0.01 0.02 0.04 0.03 0.02 0.02 0.03 0.02 0.01 0.01 0.02 0.03 0.03 0.03 0.03 0.01 0.01 0.01 0.00 0.00 0.00 0.00 0.01 0.01 0.01 0.02 0.01 0.00 0.00 0.00 0.00 0.00 0.00 0.00 0.02 0.04 0.02 0.00 0.00 0.00 0.00 0.00 0.00 0.00 0.00
MSLP
1021.94 1021.86 1021.80 1021.60 1021.40 1021.15 1020.96 1020.64 1020.49 1020.43 1020.39 1020.31 1020.10 1020.01 1019.93 1019.53 1019.16 1018.94 1018.70 1018.33 1018.00 1017.76 1017.44 1016.94 1016.52 1016.19 1015.01 1012.27 1009.28 1009.04 1009.51 1009.43 1009.51 1009.28 1008.38 1007.23 1006.72 1006.21 1005.23 1004.30 1003.98 1003.90 1003.62 1003.30 1003.27 1003.42 1003.95
1021.66 1021.58 1021.44 1021.13 1020.99 1021.00 1020.72 1020.51 1020.36 1020.32 1020.18 1020.18 1020.03 1019.98 1019.78 1019.39 1019.03 1018.79 1018.59 1018.25 1017.88 1017.60 1017.29 1016.77 1016.42 1016.32 1014.83 1012.00 1007.92 1008.25 1008.73 1009.10 1008.45 1008.45 1007.65 1006.76 1006.19 1005.73 1005.50 1004.80 1004.11 1003.94 1003.72 1003.54 1003.29 1003.50 1004.04
1021.18 1021.14 1021.06 1020.89 1020.84 1020.64 1020.39 1020.24 1020.23 1020.10 1019.94 1019.81 1019.84 1019.71 1019.60 1019.29 1018.83 1018.63 1018.34 1017.98 1017.68 1017.27 1016.98 1016.56 1016.34 1016.02 1013.97 1010.72 1007.89 1007.39 1007.86 1008.18 1007.96 1007.49 1006.80 1006.48 1006.26 1006.39 1005.63 1005.02 1004.38 1003.80 1003.86 1003.16 1002.97 1003.42 1004.07
1020.75 1020.63 1020.51 1020.43 1020.38 1020.25 1020.16 1020.03 1019.90 1019.75 1019.69 1019.65 1019.55 1019.39 1019.35 1019.12 1018.76 1018.47 1018.02 1017.62 1017.21 1016.83 1016.67 1016.30 1016.18 1015.42 1012.28 1008.75 1008.12 1007.63 1007.28 1007.50 1007.26 1006.87 1006.71 1006.40 1006.63 1006.62 1006.26 1005.64 1004.75 1004.04 1003.54 1002.88 1002.87 1003.71 1005.73
1020.23 1020.08 1019.98 1019.88 1019.86 1019.81 1019.75 1019.65 1019.55 1019.49 1019.47 1019.33 1019.29 1019.15 1018.97 1018.82 1018.62 1018.25 1017.74 1017.15 1016.52 1016.20 1016.23 1015.97 1015.61 1014.32 1010.14 1008.06 1007.61 1007.16 1006.80 1006.81 1006.76 1006.89 1006.87 1006.79 1006.87 1006.48 1005.92 1005.23 1004.54 1003.53 1002.71 1002.39 1002.79 1003.39 1004.84
1019.67 1019.55 1019.43 1019.30 1019.23 1019.21 1019.24 1019.25 1019.26 1019.27 1019.18 1019.08 1018.96 1018.90 1018.72 1018.57 1018.44 1018.08 1017.55 1016.43 1014.88 1015.56 1015.11 1014.65 1013.97 1012.86 1009.20 1006.98 1005.94 1006.33 1006.43 1006.48 1006.31 1006.68 1006.82 1006.84 1006.59 1006.12 1005.45 1004.78 1003.65 1002.79 1002.75 1002.20 1002.31 1002.67 1003.47
1019.07 1018.99 1018.86 1018.72 1018.65 1018.64 1018.66 1018.66 1018.70 1018.72 1018.74 1018.74 1018.71 1018.63 1018.54 1018.30 1018.19 1017.95 1017.52 1015.38 1013.91 1014.22 1013.40 1011.30 1010.19 1009.11 1006.91 1006.05 1005.59 1005.73 1005.83 1006.12 1006.05 1006.32 1006.19 1006.20 1005.98 1004.99 1004.43 1003.74 1003.10 1002.59 1002.62 1002.37 1002.02 1002.88 1003.14
1018.37 1018.27 1018.14 1018.01 1017.92 1017.94 1017.97 1017.96 1018.07 1018.14 1018.15 1018.28 1018.38 1018.39 1018.28 1018.10 1017.95 1017.95 1017.78 1015.81 1012.45 1012.71 1011.25 1009.62 1008.70 1007.97 1007.03 1006.28 1005.54 1005.15 1005.44 1005.68 1005.75 1005.44 1005.63 1005.58 1004.47 1004.15 1003.68 1003.23 1002.68 1002.35 1002.38 1001.91 1001.69 1002.12 1002.57
1017.58 1017.43 1017.36 1017.28 1017.13 1017.07 1017.14 1017.25 1017.45 1017.53 1017.67 1017.82 1018.00 1018.09 1018.10 1017.94 1017.76 1017.62 1016.75 1015.11 1012.87 1012.46 1011.23 1007.70 1006.59 1005.70 1005.34 1005.89 1005.12 1004.43 1004.83 1005.03 1004.96 1005.16 1004.62 1004.21 1003.41 1002.84 1002.95 1002.76 1002.37 1002.31 1002.26 1001.82 1001.71 1002.47 1002.06
1016.64 1016.51 1016.42 1016.34 1016.22 1016.21 1016.32 1016.51 1016.69 1016.83 1017.10 1017.40 1017.50 1017.73 1017.87 1017.99 1017.89 1015.90 1015.06 1013.92 1013.29 1013.01 1010.76 1006.13 1003.92 1002.90 1003.55 1004.62 1004.09 1004.30 1003.78 1004.58 1004.59 1004.22 1004.15 1003.39 1002.99 1002.44 1002.31 1002.41 1002.32 1002.10 1001.97 1002.27 1002.53 1002.32 1001.86
1015.46 1015.37 1015.31 1015.29 1015.32 1015.40 1015.54 1015.74 1015.95 1016.22 1016.45 1016.83 1017.07 1017.31 1017.58 1017.90 1016.16 1014.86 1014.46 1014.25 1012.48 1013.22 1009.59 1002.95 1001.50 1001.61 1002.20 1002.83 1002.49 1002.89 1003.31 1003.74 1003.57 1003.35 1003.52 1002.71 1002.41 1002.10 1002.04 1001.97 1001.84 1001.89 1002.07 1002.37 1002.46 1002.34 1002.17
1014.44 1014.33 1014.23 1014.16 1014.25 1014.38 1014.61 1014.86 1015.15 1015.48 1015.81 1016.14 1016.49 1016.92 1017.26 1017.43 1017.19 1015.47 1014.63 1014.80 1013.44 1012.46 1006.75 1002.52 1001.73 1001.92 1002.20 1002.44 1002.75 1002.09 1002.78 1002.99 1003.48 1003.24 1002.73 1002.32 1001.91 1001.71 1001.49 1001.66 1001.51 1001.69 1002.28 1002.81 1003.05 1002.99 1002.66
1013.34 1013.21 1013.15 1013.14 1013.20 1013.31 1013.55 1013.88 1014.21 1014.64 1015.06 1015.49 1015.85 1016.35 1016.94 1016.39 1015.93 1015.37 1015.54 1015.10 1013.77 1009.36 1004.90 1002.13 1001.27 1001.74 1002.09 1001.88 1002.55 1002.41 1002.14 1002.29 1002.17 1002.47 1001.88 1001.79 1001.29 1001.08 1001.19 1001.31 1001.27 1001.65 1002.22 1002.75 1003.28 1003.14 1002.91
1012.35 1012.17 1012.17 1012.09 1012.06 1012.20 1012.48 1012.80 1013.23 1013.76 1014.26 1014.71 1015.24 1015.80 1016.16 1015.99 1015.86 1015.88 1016.17 1015.51 1011.54 1006.11 1004.95 1001.06 1000.98 1000.84 1001.30 1001.49 1001.86 1002.15 1001.71 1001.55 1001.77 1001.63 1001.82 1001.18 1000.81 1000.54 1000.50 1000.71 1000.74 1001.33 1002.18 1002.66 1003.36 1003.99 1004.22
1011.09 1010.93 1010.82 1010.85 1010.94 1011.08 1011.36 1011.73 1012.24 1012.86 1013.37 1014.09 1014.67 1015.42 1015.32 1015.54 1015.89 1016.21 1016.42 1014.14 1009.61 1006.08 1004.58 1003.18 1001.74 1000.82 1000.56 1000.88 1001.09 1001.60 1000.84 1000.65 1000.89 1001.18 1000.87 1000.59 1000.17 1000.38 1000.24 1000.46 1000.83 1000.88 1001.48 1002.24 1002.92 1004.44 1005.08
1009.77 1009.61 1009.46 1009.55 1009.61 1009.78 1010.11 1010.57 1011.19 1011.86 1012.55 1013.36 1014.20 1014.56 1014.19 1014.60 1015.60 1015.86 1015.70 1013.02 1009.24 1006.37 1005.16 1003.49 1002.21 1001.78 1000.94 1000.28 1000.48 1000.60 1000.63 999.78 1000.11 1000.54 1000.60 1000.32 1000.08 999.95 999.67 1000.11 1000.48 1000.58 1001.15 1002.04 1002.36 1003.45 1004.27
1008.32 1008.12 1008.05 1008.08 1008.16 1008.38 1008.72 1009.23 1009.94 1010.77 1011.64 1012.56 1013.57 1013.24 1012.36 1013.75 1015.06 1015.16 1013.28 1010.37 1007.68 1005.69 1005.22 1004.00 1003.05 1002.54 1001.48 1000.73 1000.36 1000.10 999.86 999.81 999.67 999.73 1000.24 1000.31 1000.22 999.96 999.70 999.46 999.78 1000.29 1000.70 1001.70 1002.80 1002.51 1003.07
1006.74 1006.61 1006.50 1006.54 1006.61 1006.87 1007.29 1007.86 1008.58 1009.42 1010.54 1011.76 1012.01 1011.61 1011.57 1012.71 1013.82 1012.87 1011.01 1006.76 1006.99 1006.17 1005.84 1004.58 1003.81 1003.02 1002.07 1001.56 1001.03 1000.50 999.66 998.93 998.92 999.23 999.09 999.72 1000.16 1000.11 999.74 999.30 999.79 999.91 1000.15 1001.06 1001.70 1002.16 1002.17
1005.12 1004.92 1004.87 1004.77 1004.93 1005.23 1005.64 1006.25 1006.91 1007.83 1008.83 1009.88 1010.02 1010.73 1010.78 1011.00 1011.06 1010.09 1009.45 1008.55 1007.64 1006.14 1004.99 1004.45 1003.41 1003.00 1002.43 1002.27 1003.43 1002.59 1001.06 999.43 998.71 998.32 998.49 999.54 999.83 1000.21 999.92 999.95 999.71 999.50 999.75 1000.76 1001.10 1001.52 1001.63
1003.22 1003.06 1003.05 1002.98 1003.18 1003.63 1004.06 1004.44 1005.30 1006.26 1007.25 1008.52 1009.27 1009.34 1009.61 1009.79 1008.82 1008.77 1008.32 1006.28 1005.65 1005.24 1005.59 1005.10 1003.78 1002.90 1002.33 1002.41 1003.60 1003.64 1002.49 1000.55 999.02 998.76 998.68 999.07 999.44 999.41 999.56 999.37 999.73 999.26 999.23 999.64 1000.57 1000.92 1001.41
1001.38 1001.23 1001.26 1001.54 1001.97 1002.44 1002.81 1003.13 1003.44 1004.41 1005.52 1006.79 1006.90 1006.73 1005.82 1006.18 1006.54 1005.29 1006.67 1005.11 1005.23 1005.09 1004.83 1005.11 1003.91 1002.76 1002.18 1002.43 1003.04 1004.00 1004.17 1002.70 1001.33 999.91 999.25 999.57 999.28 999.84 1000.02 999.69 999.27 998.87 998.91 999.03 999.35 1000.51 1000.22
999.55 999.58 999.77 1000.07 1000.47 1000.87 1001.38 1001.74 1002.26 1002.77 1004.11 1004.48 1005.07 1004.92 1004.82 1004.00 1005.94 1006.18 1005.48 1004.53 1003.92 1003.42 1003.75 1003.53 1003.18 1002.15 1001.89 1001.87 1003.08 1004.95 1005.49 1004.99 1002.35 1000.76 999.97 999.84 1000.02 1000.69 1000.38 1000.00 999.27 998.70 998.37 997.97 998.25 998.47 998.40
997.97 997.96 998.06 998.29 998.72 999.25 999.86 1000.47 1001.12 1001.73 1002.45 1001.47 1003.49 1003.96 1003.26 1003.35 1004.24 1005.10 1004.12 1002.88 1002.32 1002.79 1002.69 1002.48 1002.76 1002.31 1001.64 1001.46 1002.54 1003.93 1005.03 1005.71 1004.96 1003.48 1001.81 1000.84 1000.58 1000.83 1000.38 1000.25 999.90 998.49 997.75 997.24 997.12 997.23 997.35
996.15 996.08 996.13 996.33 996.73 997.38 998.05 998.86 999.61 1000.27 1001.09 1001.70 1002.33 1002.54 1002.90 1001.80 1002.23 1002.29 1002.73 1002.66 1001.95 1002.34 1002.10 1001.85 1001.98 1001.82 1000.92 1002.86 1004.02 1005.09 1006.04 1006.59 1005.77 1004.56 1004.23 1002.66 1001.21 1001.10 1001.06 1000.72 999.18 997.60 997.17 996.90 996.77 996.70 996.62
993.94 993.76 993.76 993.94 994.40 994.99 995.95 996.87 997.90 998.90 999.93 1001.34 1002.11 1001.28 1001.14 1001.31 1000.90 1001.41 1001.83 1001.87 1002.53 1002.45 1002.13 1001.70 1000.85 1000.35 1001.97 1003.10 1005.17 1005.85 1006.30 1006.73 1005.89 1005.90 1004.80 1004.24 1003.02 1001.61 1001.28 1000.62 999.39 997.64 996.94 996.75 996.75 996.53 996.46
991.57 991.36 991.35 991.54 992.03 992.71 993.66 994.79 996.08 997.55 998.89 1000.41 1001.37 1001.79 1000.66 1000.68 999.43 999.51 1000.58 1000.94 1001.26 1001.52 1001.92 1000.99 1000.72 1000.82 1000.92 1001.87 1004.60 1005.31 1004.24 1004.25 1005.32 1005.29 1005.06 1004.70 1003.47 1002.82 1001.52 1000.50 998.63 997.69 997.10 996.60 996.75 995.84 995.79
989.64 989.41 989.43 989.58 989.91 990.39 991.69 992.88 994.45 996.25 997.78 999.50 1000.44 1001.74 1000.64 1000.14 999.52 999.42 999.70 1000.07 1000.58 1001.00 1000.57 1000.57 1000.43 1000.69 1000.73 1001.61 1003.64 1003.82 1002.63 1002.61 1002.88 1003.38 1004.38 1005.42 1004.20 1002.70 1001.84 1000.27 998.49 997.34 996.87 996.69 996.14 996.05 995.48
987.67 987.67 987.69 987.82 987.70 988.71 990.28 991.75 993.47 995.23 997.01 998.54 999.58 1000.32 999.99 1000.12 999.49 999.94 999.99 999.91 1000.10 999.93 999.73 999.71 1000.59 1001.10 1001.22 1001.87 1003.35 1002.61 1001.44 1001.26 1001.27 1001.42 1002.88 1004.01 1004.31 1002.69 1001.92 1000.59 998.58 996.62 996.50 995.89 995.57 995.14 995.20
986.96 986.61 986.36 986.72 986.40 988.41 990.02 991.45 993.04 994.72 996.31 998.32 999.26 999.69 999.53 1000.32 999.61 999.39 999.87 999.83 1000.29 999.72 999.79 999.23 999.56 1001.32 1002.21 1002.14 1001.38 1001.48 1000.62 1000.25 1000.32 1000.93 1001.27 1002.95 1003.06 1002.88 1002.33 1000.02 997.80 996.60 996.34 995.58 995.05 995.05 995.11
Thickness
5547 5549 5552 5556 5560 5565 5569 5573 5577 5580 5582 5585 5589 5592 5595 5601 5607 5612 5615 5619 5624 5629 5633 5637 5640 5643 5653 5671 5687 5704 5700 5700 5698 5697 5695 5697 5691 5689 5681 5693 5697 5687 5694 5702 5704 5702 5695
5537 5539 5542 5546 5551 5554 5559 5563 5567 5570 5574 5577 5580 5583 5588 5593 5599 5604 5608 5612 5617 5623 5628 5632 5636 5637 5649 5654 5705 5705 5701 5697 5701 5696 5697 5701 5696 5700 5686 5687 5688 5694 5694 5696 5703 5700 5697
5527 5530 5533 5537 5539 5544 5549 5552 5556 5560 5565 5569 5571 5574 5579 5585 5592 5596 5601 5606 5611 5617 5622 5627 5629 5632 5646 5665 5701 5706 5703 5698 5701 5700 5697 5703 5703 5689 5693 5682 5698 5696 5682 5697 5703 5701 5693
5518 5522 5525 5528 5531 5534 5538 5542 5546 5550 5555 5559 5563 5567 5570 5576 5582 5588 5595 5601 5606 5613 5617 5621 5624 5631 5650 5688 5693 5698 5703 5697 5703 5705 5702 5705 5700 5688 5683 5688 5687 5682 5687 5676 5700 5698 5676
5511 5514 5518 5521 5524 5527 5531 5536 5540 5543 5546 5551 5554 5559 5564 5568 5573 5580 5588 5596 5603 5608 5611 5615 5621 5630 5658 5690 5685 5694 5700 5691 5696 5695 5697 5699 5691 5681 5684 5674 5670 5684 5672 5684 5688 5701 5681
5506 5508 5511 5515 5518 5522 5525 5529 5532 5535 5539 5542 5547 5551 5555 5560 5565 5572 5579 5592 5605 5604 5609 5616 5624 5629 5661 5676 5695 5693 5698 5694 5688 5684 5680 5679 5677 5670 5675 5671 5654 5673 5675 5688 5685 5698 5697
5501 5503 5506 5510 5513 5516 5519 5522 5525 5529 5532 5535 5539 5542 5547 5553 5557 5562 5569 5590 5605 5603 5612 5633 5642 5650 5671 5687 5696 5687 5693 5685 5685 5677 5663 5672 5662 5660 5674 5685 5689 5690 5683 5681 5696 5700 5694
5494 5497 5500 5503 5506 5508 5510 5513 5516 5520 5524 5527 5530 5534 5538 5544 5549 5552 5556 5572 5600 5600 5608 5636 5643 5653 5664 5676 5669 5680 5689 5672 5669 5663 5669 5663 5663 5680 5690 5691 5690 5689 5680 5685 5699 5701 5696
5487 5490 5492 5494 5498 5501 5504 5505 5505 5509 5512 5515 5518 5523 5527 5533 5539 5543 5551 5566 5587 5594 5593 5637 5652 5657 5666 5664 5665 5673 5679 5675 5668 5659 5667 5662 5678 5695 5687 5683 5682 5680 5675 5686 5688 5688 5700
5478 5481 5483 5487 5490 5493 5494 5495 5497 5499 5500 5502 5506 5509 5514 5519 5525 5542 5550 5563 5571 5578 5579 5628 5655 5669 5672 5665 5660 5679 5687 5673 5665 5661 5667 5671 5687 5686 5683 5676 5683 5667 5693 5685 5680 5678 5669
5471 5473 5475 5477 5479 5480 5482 5484 5486 5487 5488 5489 5493 5496 5499 5504 5523 5536 5540 5546 5566 5564 5561 5653 5668 5680 5679 5664 5676 5675 5685 5673 5661 5669 5668 5669 5675 5676 5672 5678 5689 5677 5689 5682 5683 5679 5679
5460 5462 5465 5468 5469 5470 5471 5473 5474 5475 5476 5477 5478 5481 5484 5490 5496 5509 5521 5526 5544 5541 5570 5634 5649 5650 5652 5659 5661 5675 5667 5677 5673 5664 5671 5673 5692 5685 5684 5688 5692 5696 5680 5676 5676 5672 5651
5451 5453 5456 5458 5459 5461 5462 5463 5464 5464 5465 5466 5466 5467 5468 5477 5489 5489 5496 5506 5514 5547 5614 5629 5634 5639 5643 5649 5648 5651 5655 5652 5651 5640 5649 5667 5672 5688 5691 5675 5688 5683 5668 5643 5638 5643 5645
5440 5445 5447 5451 5454 5456 5456 5457 5458 5458 5459 5460 5459 5457 5458 5464 5467 5468 5472 5481 5512 5591 5590 5646 5639 5636 5632 5643 5645 5644 5648 5646 5658 5658 5648 5647 5642 5674 5689 5679 5675 5672 5667 5644 5621 5624 5639
5436 5440 5445 5448 5451 5454 5455 5455 5454 5453 5454 5452 5450 5449 5454 5457 5454 5453 5452 5463 5522 5580 5594 5601 5615 5619 5624 5641 5644 5638 5648 5649 5657 5658 5645 5647 5652 5682 5684 5688 5682 5673 5657 5680 5657 5644 5619
5433 5438 5444 5446 5450 5452 5453 5453 5452 5451 5449 5446 5444 5443 5452 5453 5445 5444 5440 5463 5526 5568 5575 5587 5590 5605 5607 5631 5633 5635 5636 5659 5653 5660 5666 5661 5646 5675 5685 5685 5682 5674 5686 5652 5660 5628 5613
5434 5438 5442 5445 5449 5452 5453 5453 5451 5448 5445 5439 5435 5441 5459 5446 5437 5435 5455 5499 5537 5563 5565 5570 5573 5576 5596 5615 5630 5632 5639 5651 5657 5658 5663 5662 5653 5658 5674 5664 5663 5665 5661 5659 5657 5662 5630
5433 5437 5441 5445 5448 5450 5452 5451 5450 5447 5441 5432 5435 5443 5452 5441 5432 5443 5473 5534 5540 5543 5544 5554 5568 5574 5585 5603 5615 5625 5632 5647 5663 5658 5650 5661 5650 5634 5651 5678 5681 5677 5668 5665 5641 5643 5654
5432 5436 5440 5444 5448 5450 5451 5451 5449 5446 5440 5434 5436 5432 5440 5443 5436 5458 5485 5504 5517 5532 5542 5543 5555 5571 5589 5587 5569 5586 5611 5647 5659 5658 5653 5655 5637 5619 5637 5654 5667 5661 5670 5662 5663 5661 5645
5433 5436 5439 5443 5446 5446 5447 5448 5446 5442 5437 5427 5420 5421 5430 5432 5468 5470 5478 5514 5521 5535 5526 5529 5544 5566 5575 5581 5575 5571 5578 5626 5647 5650 5647 5649 5642 5634 5619 5642 5654 5652 5664 5671 5658 5637 5638
5432 5434 5436 5436 5437 5437 5439 5440 5443 5439 5434 5424 5412 5419 5449 5452 5458 5498 5486 5516 5512 5514 5525 5522 5530 5547 5562 5565 5566 5561 5568 5585 5610 5627 5640 5634 5624 5632 5642 5654 5660 5662 5659 5663 5657 5643 5639
5428 5428 5428 5427 5427 5428 5429 5430 5432 5433 5427 5422 5403 5422 5445 5475 5457 5461 5477 5501 5512 5524 5521 5520 5523 5548 5562 5562 5557 5552 5555 5563 5595 5613 5623 5631 5617 5620 5617 5640 5650 5647 5658 5668 5664 5667 5666
5419 5419 5419 5418 5416 5414 5413 5413 5414 5416 5416 5426 5404 5421 5442 5455 5451 5444 5466 5502 5515 5523 5517 5526 5527 5537 5549 5566 5566 5555 5548 5547 5555 5575 5592 5610 5613 5609 5604 5627 5628 5619 5648 5663 5670 5672 5670
5411 5409 5406 5402 5400 5398 5397 5397 5399 5401 5402 5407 5403 5423 5421 5443 5452 5463 5475 5490 5506 5504 5512 5522 5524 5529 5557 5550 5544 5540 5534 5537 5545 5565 5571 5583 5608 5609 5595 5596 5589 5638 5665 5667 5660 5665 5672
5401 5400 5399 5397 5394 5392 5390 5391 5392 5393 5392 5387 5394 5418 5426 5433 5462 5465 5471 5477 5481 5488 5493 5507 5524 5545 5546 5533 5522 5520 5523 5520 5534 5541 5553 5569 5581 5592 5586 5592 5617 5638 5653 5652 5647 5651 5669
5400 5399 5396 5391 5386 5383 5380 5381 5386 5386 5385 5383 5388 5404 5423 5435 5459 5482 5470 5474 5473 5479 5486 5505 5523 5531 5543 5538 5511 5508 5527 5544 5527 5535 5549 5554 5574 5577 5590 5586 5589 5625 5651 5665 5662 5630 5670
5397 5393 5388 5381 5378 5377 5372 5377 5381 5381 5382 5384 5389 5392 5416 5428 5457 5463 5464 5469 5477 5478 5491 5504 5512 5516 5532 5507 5492 5511 5536 5555 5545 5543 5537 5531 5548 5568 5578 5586 5608 5639 5653 5659 5622 5637 5667
5398 5389 5382 5375 5378 5375 5372 5376 5377 5379 5379 5386 5394 5397 5415 5422 5447 5450 5458 5466 5470 5480 5488 5505 5496 5495 5510 5507 5501 5520 5535 5552 5559 5565 5547 5539 5540 5564 5575 5577 5583 5648 5646 5633 5652 5668 5667
5391 5387 5382 5376 5380 5373 5371 5374 5375 5377 5381 5382 5388 5401 5416 5419 5437 5452 5454 5462 5465 5479 5485 5500 5507 5490 5489 5502 5525 5529 5537 5547 5559 5543 5565 5543 5552 5560 5564 5591 5624 5640 5639 5656 5665 5660 5660